Home   Weather   Smara   Past weeks

Past Weather in Smara, Western Sahara — Yesterday and Last 2 Weeks

Now
63 °F

Clear.


Feels Like: 63 °F
Forecast: 55 / 78 °F
Wind: 10 mph from East

Location: Laayoune/Hassan Isl

Current Time: Dec 8, 2016 at 2:19:14 am

Latest Report: Dec 8, 2016 at 2:00 am


Visibility: 10 mi

Pressure: 30.12 "Hg

Humidity: 88%

Dew Point: 59 °F

Location of SmaraLocation

Past Weather in Smara — Graph

°F

Smara Temperature Yesterday

Maximum temperature yesterday: 82 °F (at 5:00 pm)
Minimum temperature yesterday: 55 °F (at 12:00 pm)
Average temperature yesterday: 67 °F

High & Low Weather Summary for the Past Weeks

 TemperatureHumidityPressure
High86 °F (Dec 1, 2:00 pm)100% (Dec 3, 8:00 am)30.18 "Hg (Dec 3, 8:00 am)
Low52 °F (Nov 25, 7:00 am)20% (Dec 1, 1:00 pm)29.86 "Hg (Dec 3, 2:00 pm)
Average66 °F68%30.02 "Hg
* Reported Nov 23 1:00 am — Dec 8 1:00 am, Smara, Weather by CustomWeather, © 2016

Note: Actual official high and low records may vary slightly from our data, if they occured in-between our weather recording intervals... More about our weather records

Advertising

Smara Weather History for the Previous 24 Hours

Scroll right to see more
 ConditionsComfort  
Time TempWeatherWind HumidityBarometerVisibility
1:00 am
Thu, Dec 8
63 °FClear.14 mph88%30.12 "Hg10 mi
12:00 am64 °FClear.13 mph88%30.15 "Hg10 mi
11:00 pm
Wed, Dec 7
64 °FClear.15 mph88%30.15 "Hg10 mi
10:00 pm64 °FClear.15 mph88%30.15 "Hg10 mi
9:00 pm66 °FClear.17 mph83%30.12 "Hg10 mi
8:00 pm68 °FClear.16 mph78%30.12 "Hg10 mi
7:00 pm72 °FClear.16 mph65%30.09 "Hg10 mi
6:00 pm79 °FSunny.9 mph32%30.07 "Hg10 mi
5:00 pm82 °FSunny.10 mph28%30.07 "Hg10 mi
4:00 pm81 °FSunny.9 mph30%30.07 "Hg10 mi
3:00 pm81 °FPassing clouds.9 mph30%30.07 "HgN/A
2:00 pm81 °FSunny.8 mph34%30.09 "Hg10 mi
1:00 pm77 °FSunny.8 mph42%30.12 "Hg10 mi
12:00 pm55 °FSunny.12 mph100%30.15 "Hg10 mi
11:00 am70 °FSunny.14 mph69%30.15 "Hg10 mi
10:00 am66 °FSunny.13 mph78%30.15 "Hg10 mi
9:00 am63 °FClear.10 mph88%30.15 "Hg5 mi
8:00 am59 °FClear.5 mph94%30.12 "Hg5 mi
7:00 am57 °FClear.8 mph100%30.12 "Hg10 mi
6:00 am57 °FPassing clouds.5 mph100%30.12 "HgN/A
5:00 am61 °FPassing clouds.7 mph88%30.09 "HgN/A
4:00 am61 °FPassing clouds.5 mph88%30.09 "HgN/A
3:00 am61 °FClear.9 mph88%30.12 "Hg10 mi
2:00 am63 °FPassing clouds.7 mph88%30.12 "HgN/A
Weather by CustomWeather, © 2016

See weather overviewHow to use our weather pages